Location: Gugi
(45.4667°N, 11.1000°E)
Time: 16:35:36
(UTC+00:00)

Envisat - Pass Details

Date: 17 November 2019
Orbit: 764 x 766 km, 98.1° (Epoch: 14 December)

Event Time Altitude Azimuth Distance (km) Brightness Sun altitude
Rises 16:49:42 0° 155° (SSE) 3,221 6.1 -11.6°
Reaches altitude 10° 16:52:01 10° 152° (SSE) 2,298 5.3 -12.0°
Maximum altitude 16:57:00 62° 72° (ENE) 864 3.0 -12.8°
Drops below altitude 10° 17:02:01 10° 353° (N) 2,314 5.4 -13.7°
Sets 17:04:21 0° 350° (N) 3,244 6.2 -14.1°
